Weather Roundup
Issued by NWS Springfield, MO

Home | Current Version | Previous Version | Text Only | Print | Product List | Glossary On
Versions: 1 2 3 4 5 6 7 8 9 10 11 12 13 14 15 16 17 18 19 20 21 22 23 24 25 26 27 28 29 30 31 32 33 34 35 36 37 38 39 40 41 42 43 44 45 46 47 48 49 50
980
NZUS99 KSGF 210107
HRRSGF

HOURLY WEATHER
NATIONAL WEATHER SERVICE SPRINGFIELD MO
800 PM CDT WED SEP 20 2017

......SGF CWA......

CITY           SKY/WX    TMP DP  RH WIND       PRES   REMARKS
SPRINGFIELD    CLEAR     82  69  64 S8        29.88R
JOPLIN         CLEAR     84  72  67 S9        29.84S
WEST PLAINS    PTCLDY    83  71  67 S9        29.95R
ROLLA          CLEAR     80  68  66 SE7       29.91R
OSAGE BEACH    CLEAR     82  72  71 SE5       29.88R
BRANSON        PTCLDY    82  68  61 S9        29.92S

......SURROUNDING SGF CWA......

CITY           SKY/WX    TMP DP  RH WIND       PRES   REMARKS
CHANUTE        PTCLDY    82  73  74 S7        29.82R
COFFEYVILLE    CLEAR     85  73  67 S10       29.81R HX  91
EMPORIA        MOCLDY    81  71  71 SE6       29.81R
GROVE OK       CLEAR     84  72  65 SE6       29.85S
ROGERS AR      CLEAR     81  71  71 SE6       29.91R
SILOAM SPRINGS CLEAR     82  70  66 SE7       29.89R
HARRISON AR    CLEAR     81  69  67 SE7       29.93R
NEAR YELLVILLE CLEAR     84  71  65 S3        29.91

......KANSAS AND MISSOURI......

CITY           SKY/WX    TMP DP  RH WIND       PRES   REMARKS
KANSAS CTY INT MOCLDY    80  74  81 SE7       29.83R
DOWNTOWN KC    MOCLDY    87  75  67 E5        29.81R HX  96
COLUMBIA       CLEAR     81  71  71 S8        29.86S
SEDALIA        CLEAR     81  74  79 SE7       29.85S
ST JOSEPH      MOCLDY    80  73  79 SE3       29.81S
ST LOUIS       CLEAR     89  69  51 S10       29.88S HX  93
SPIRIT OF STL  CLEAR     87  69  54 S5        29.86S HX  91
KIRKSVILLE     MOCLDY    83  72  69 S5        29.84S
WICHITA        PTCLDY    85  69  58 S9        29.78S
TOPEKA         MOCLDY    82  75  79 CALM      29.80S
OLATHE         PTCLDY    81  76  84 S5        29.83R

......TENNESSEE......

CITY           SKY/WX    TMP DP  RH WIND       PRES   REMARKS
MEMPHIS        CLEAR     85  73  67 SE6       29.96R HX  91
NASHVILLE      PTCLDY    79  70  74 S3        30.01R

......ARKANSAS.......

CITY           SKY/WX    TMP DP  RH WIND       PRES   REMARKS
FAYETTEVILLE   CLEAR     83  71  67 SE7       29.90R
FT SMITH       CLEAR     87  71  58 S7        29.85R HX  93
LITTLE ROCK    CLEAR     80  74  81 S6        29.92R

......OKLAHOMA.......

CITY           SKY/WX    TMP DP  RH WIND       PRES   REMARKS
TULSA          PTCLDY    89  73  59 S12       29.80R HX  97
PONCA CITY     PTCLDY    87  70  56 S7        29.79R HX  92
MCALESTER      CLEAR     87  72  60 S6        29.85R HX  93
OKLAHOMA CITY  PTCLDY    82  72  71 S8        29.80S

......IOWA............

CITY           SKY/WX    TMP DP  RH WIND       PRES   REMARKS
DES MOINES     PTCLDY    78  61  55 N5        29.82S
QUAD CITIES    CLOUDY    86  69  56 NW9       29.83R THUNDER HX  90

......ILLINOIS........

CITY           SKY/WX    TMP DP  RH WIND       PRES   REMARKS
QUINCY         CLEAR     84  65  52 S7        29.83F
CHICAGO        PTCLDY    84  66  54 S10       29.85R




USA.gov is the U.S. government's official web portal to all federal, state and local government web resources and services.